User: anonymous   Login
Location: Oshawa
(43.9000°N, 78.8670°W)
Time: 20:03:08
(UTC-04:00)
Language:

Iridium 98 - Orbit

View from above orbital plane
View from above orbital plane
View from above satellite
View from above satellite

Ground track
Ground track

The orbit data is extracted from the following two-line orbital elements,

1 27451U 02031B   16270.55578874  .00000122  00000-0  36610-4 0  9995
2 27451  86.3956 132.4561 0002069  80.5824 341.4048 14.34221189753514
Epoch (UTC): 26 September 2016 13:20:20
Eccentricity: 0.0002069
inclination: 86.3956°
perigee height: 776 km
apogee height: 779 km
right ascension of ascending node: 132.4561°
argument of perigee: 80.5824°
revolutions per day: 14.34221189
mean anomaly at epoch: 341.4048°
orbit number at epoch: 75351

The dashed part of the orbit path shows where the satellite is in the earth's shadow,  

DLR